Location: Stara Lesna
(49.1528°N, 20.2911°E)
Time: 21:09:55
(UTC+02:00)

Cosmos 1428 Rocket - Pass Details

Date: 21 September 2019
Orbit: 947 x 989 km, 82.9° (Epoch: 20 October)

Event Time Altitude Azimuth Distance (km) Brightness Sun altitude
Exits shadow 04:39:21 - 195° (SSW) 2,855 6.6 -17.3°
Reaches altitude 10° 04:39:40 10° 195° (SSW) 2,740 6.5 -17.3°
Maximum altitude 04:45:57 74° 281° (W) 1,027 4.4 -16.3°
Drops below altitude 10° 04:52:14 10° 6° (N) 2,737 7.2 -15.4°
Sets 04:54:46 0° 9° (N) 3,683 7.9 -15.0°
